Location: Vale
(35.4830°N, 81.3830°W)
Time: 12:18:46
(UTC-04:00)

Amateur Radio Satellites - All Passes

Search period start: 29 June 2016 11:48
Search period end: 30 June 2016 11:48
Location: Vale, 35.4830°N, 81.3830°W

Satellite Date Start Highest point End Downlink Frequencies (MHz)
Time Altitude Azimuth
ANTELSAT 29 Jun 11:53:12 11:56:42 24° 265° (W) 12:00:15 437.575/2403.000
PCSat 29 Jun 12:00:35 12:05:58 61° 61° (ENE) 12:11:18 145.827
DELFI C3 29 Jun 12:01:07 12:04:15 23° 290° (WNW) 12:07:22 145.870
BEESAT 3 29 Jun 12:07:30 12:11:24 60° 58° (ENE) 12:15:18 437.485
ZACube-1 29 Jun 12:07:57 12:09:50 12° 294° (WNW) 12:11:43 437.345
JAS-2 29 Jun 12:08:06 12:14:10 27° 66° (ENE) 12:19:50 435.910
YUBILEINY 29 Jun 12:21:39 12:28:34 28° 83° (E) 12:35:31 435.215
CUBEBUG 1 29 Jun 12:25:52 12:29:31 26° 97° (E) 12:33:07 437.445
50 SAT 29 Jun 12:27:57 12:31:02 25° 97° (E) 12:34:05 437.505
BUGSAT 1 29 Jun 12:28:13 12:32:04 46° 74° (ENE) 12:35:54 437.445
VELOX 1 29 Jun 12:35:57 12:39:51 31° 98° (E) 12:43:45 145.980
O/OREOS (USA 219) 29 Jun 12:38:07 12:41:50 25° 63° (ENE) 12:45:33 437.305
Cosmos 2491 29 Jun 12:38:57 12:47:42 77° 83° (E) 12:56:24 435.465 / 435.565
BEESAT 2 29 Jun 12:46:57 12:50:58 89° 252° (WSW) 12:54:56 435.950
NANOSAT C BR1 29 Jun 12:51:11 12:54:57 33° 262° (W) 12:58:45 145.865
QB50P1 29 Jun 12:54:52 12:58:29 28° 263° (W) 13:02:08 145.935-145.965
POPSAT HIP 1 29 Jun 12:58:16 13:01:49 27° 263° (W) 13:05:22 437.405
PHONESAT 2.4 29 Jun 13:01:17 13:03:47 23° 213° (SSW) 13:06:17 2401.200-2431.200
Cosmos 2504 29 Jun 13:02:14 13:04:57 12° 76° (ENE) 13:07:42 435.465 / 435.565
Oscar 19 29 Jun 13:03:06 13:06:45 20° 66° (ENE) 13:10:24 437.125/150
QB50P2 29 Jun 13:11:37 13:14:28 18° 266° (W) 13:17:20 145.880/145.840
UKube-1 29 Jun 13:12:04 13:16:15 49° 100° (E) 13:20:24 .
SPROUT 29 Jun 13:12:06 13:16:01 34° 98° (E) 13:19:55 437.525
DUCHIFAT 1 29 Jun 13:12:06 13:15:13 20° 265° (W) 13:18:22 145.980
POLYITAN 1 29 Jun 13:14:19 13:17:06 17° 266° (W) 13:19:54 437.675
ESTCUBE 1 29 Jun 13:16:03 13:20:25 51° 286° (WNW) 13:24:45 437.505/2401.250
AISAT 29 Jun 13:16:31 13:20:55 81° 284° (WNW) 13:25:19 437.250
RS-15 29 Jun 13:16:57 13:28:11 63° 305° (NW) 13:40:07 29.354- 29.394
Gurwin Techsat 1B 29 Jun 13:27:53 13:30:48 15° 63° (ENE) 13:33:42 435.225
DX 1 29 Jun 13:33:31 13:37:51 71° 284° (WNW) 13:42:09 434.975-435.025
AIST 2 29 Jun 13:37:06 13:39:50 17° 50° (NE) 13:42:34 435.215
PCSat 29 Jun 13:45:47 13:48:47 15° 256° (WSW) 13:51:45 145.827
JAS-2 29 Jun 13:51:12 13:58:46 57° 259° (W) 14:05:46 435.910
50 SAT 29 Jun 14:02:07 14:04:29 17° 291° (WNW) 14:06:51 437.505
CUBEBUG 1 29 Jun 14:02:16 14:05:39 23° 291° (WNW) 14:09:01 437.445
BUGSAT 1 29 Jun 14:07:00 14:07:39 10° 268° (W) 14:08:20 437.445
VELOX 1 29 Jun 14:12:54 14:16:06 20° 292° (WNW) 14:19:18 145.980
YUBILEINY 29 Jun 14:16:16 14:24:45 56° 281° (W) 14:33:20 435.215
O/OREOS (USA 219) 29 Jun 14:17:26 14:21:07 25° 258° (WSW) 14:24:49 437.305
TISAT 1 29 Jun 14:28:51 14:33:02 65° 101° (E) 14:37:13 437.305
Cosmos 2491 29 Jun 14:38:00 14:43:27 19° 280° (W) 14:48:55 435.465 / 435.565
Oscar 19 29 Jun 14:40:50 14:45:43 43° 261° (W) 14:50:36 437.125/150
Cosmos 2504 29 Jun 14:48:39 14:56:40 79° 94° (E) 15:05:19 435.465 / 435.565
SPROUT 29 Jun 14:48:50 14:51:40 17° 292° (WNW) 14:54:30 437.525
UKube-1 29 Jun 14:49:55 14:51:50 13° 295° (WNW) 14:53:44 .
JUGNU 29 Jun 14:56:12 14:58:22 12° 167° (SSE) 15:00:32 437.505
Gurwin Techsat 1B 29 Jun 15:04:55 15:10:10 62° 259° (WSW) 15:15:27 435.225
ITAMSAT 1 29 Jun 15:05:15 15:10:11 45° 72° (ENE) 15:15:10 435.822/435.867
AIST 2 29 Jun 15:14:34 15:18:30 41° 245° (WSW) 15:22:24 435.215
SWISSCUBE 29 Jun 15:22:21 15:26:58 47° 100° (E) 15:31:34 437.505
RS-15 29 Jun 15:35:37 15:43:48 21° 333° (NNW) 15:52:18 29.354- 29.394
AO-7 29 Jun 15:35:55 15:43:48 50° 66° (ENE) 15:51:44 29.400- 29.500
ISS 29 Jun 15:46:36 15:49:46 45° 38° (NE) 15:52:55 145.825
BEESAT 29 Jun 15:47:23 15:52:12 80° 101° (ESE) 15:56:58 436.000
ITUPSAT 1 29 Jun 15:49:05 15:53:55 82° 104° (ESE) 15:58:42 437.325
MOZHAYETS 4 29 Jun 16:18:52 16:21:54 17° 93° (E) 16:24:54
SO-50 29 Jun 16:19:08 16:24:02 82° 301° (WNW) 16:28:57 436.795
KKS-1 29 Jun 16:21:08 16:24:18 19° 95° (E) 16:27:26 437.445
HORYU 2 29 Jun 16:41:31 16:44:53 22° 68° (ENE) 16:48:16 437.375
JUGNU 29 Jun 16:42:52 16:46:37 17° 177° (S) 16:50:23 437.505
Cosmos 2504 29 Jun 16:45:37 16:51:05 19° 294° (WNW) 16:56:46 435.465 / 435.565
ITAMSAT 1 29 Jun 16:46:17 16:49:49 18° 266° (W) 16:53:24 435.822/435.867
STARS 29 Jun 16:50:25 16:53:38 20° 95° (E) 16:56:49 437.465
SWISSCUBE 29 Jun 17:01:26 17:04:20 16° 295° (WNW) 17:07:15 437.505
ISS 29 Jun 17:24:13 17:25:54 13° 233° (SW) 17:27:35 145.825
NOAA 18 29 Jun 17:25:34 17:27:37 12° 61° (ENE) 17:29:42 137.9125
BRITE-PL 29 Jun 17:28:15 17:30:25 13° 67° (ENE) 17:32:31 437.365/2234.400
AO-7 29 Jun 17:29:25 17:36:41 33° 262° (W) 17:44:01 29.400- 29.500
AIST 1 29 Jun 17:47:43 17:52:03 84° 278° (W) 17:56:22
CUBESAT XI-V 29 Jun 17:49:11 17:52:19 18° 94° (E) 17:55:26 437.345
CUTE-I 29 Jun 17:54:24 17:58:14 20° 65° (ENE) 18:02:05 437.470
MOZHAYETS 4 29 Jun 17:54:52 17:59:11 39° 288° (WNW) 18:03:27
KKS-1 29 Jun 17:56:54 18:00:53 33° 289° (WNW) 18:04:52 437.445
RS-15 29 Jun 17:57:09 18:03:26 15° 11° (N) 18:09:46 29.354- 29.394
SRMSAT 29 Jun 17:59:58 18:03:11 15° 172° (S) 18:06:25 437.500
SO-50 29 Jun 18:03:43 18:05:15 11° 317° (NW) 18:06:47 436.795
HORYU 2 29 Jun 18:17:24 18:21:14 29° 263° (W) 18:25:07 437.375
NOAA 15 29 Jun 18:17:36 18:22:40 48° 72° (ENE) 18:27:43 137.62
GONETS M04 29 Jun 18:18:32 18:26:15 37° 86° (E) 18:33:56
STARS 29 Jun 18:26:06 18:29:59 31° 289° (WNW) 18:33:52 437.465
JUGNU 29 Jun 18:31:29 18:34:54 16° 187° (S) 18:38:19 437.505
DANDE 29 Jun 18:50:03 18:51:28 11° 63° (ENE) 18:52:46 436.750
DOVE 4 29 Jun 18:50:24 18:53:01 16° 69° (ENE) 18:55:36 437.250
LilacSat-2 29 Jun 18:53:42 18:57:27 71° 76° (ENE) 19:01:14 437.200
Cubesat XI-IV 29 Jun 18:58:29 19:03:50 84° 76° (ENE) 19:09:13 437.490
NOAA 18 29 Jun 19:02:04 19:07:31 81° 256° (WSW) 19:13:02 137.9125
BRITE-PL 29 Jun 19:03:24 19:08:29 61° 259° (W) 19:13:11 437.365/2234.400
Cosmos 2499 29 Jun 19:21:28 19:29:33 64° 92° (E) 19:38:12 435.465 / 435.565
CUBESAT XI-V 29 Jun 19:25:34 19:29:48 36° 288° (WNW) 19:33:59 437.345
GOMX 1 29 Jun 19:31:32 19:36:11 68° 259° (WSW) 19:40:34 467.674
CUTE-I 29 Jun 19:32:49 19:37:55 45° 261° (W) 19:43:03 437.470
HO-68 29 Jun 19:36:43 19:42:40 30° 64° (ENE) 19:48:38 435.675
STRAND 1 29 Jun 19:37:09 19:40:26 17° 93° (E) 19:43:41 437.568
CINEMA 3 29 Jun 19:37:57 19:40:11 14° 67° (ENE) 19:42:24 145.822/145.860
SRMSAT 29 Jun 19:47:53 19:51:37 17° 182° (S) 19:55:21 437.500
CUSAT 1 29 Jun 19:57:35 20:00:09 22° 271° (W) 20:02:24 437.405
NOAA 15 29 Jun 19:59:06 20:02:38 18° 266° (W) 20:06:10 137.62
COMPASS 1 29 Jun 20:08:50 20:11:08 14° 67° (ENE) 20:13:25 437.405
CANX-2 29 Jun 20:09:56 20:13:49 35° 73° (ENE) 20:17:45 2200.000
RS-15 29 Jun 20:10:16 20:21:21 36° 44° (NE) 20:32:19 29.354- 29.394
GONETS M04 29 Jun 20:14:45 20:22:50 42° 284° (WNW) 20:30:59
DOVE 4 29 Jun 20:26:28 20:30:28 35° 261° (W) 20:34:21 437.250
CUTE 1.7 + AOD 2 29 Jun 20:29:24 20:33:33 52° 75° (ENE) 20:37:44 437.475
DANDE 29 Jun 20:30:47 20:34:51 35° 270° (W) 20:38:01 436.750
SEEDS 29 Jun 20:31:23 20:35:19 38° 73° (ENE) 20:39:17 437.485
AUBIESAT-1 29 Jun 20:43:30 20:45:16 14° 64° (ENE) 20:47:03 437.475
CUBEBUG 2 29 Jun 21:01:44 21:05:34 38° 73° (ENE) 21:09:31 437.445
AAUSAT CUBESAT 2 29 Jun 21:06:48 21:10:53 55° 75° (ENE) 21:15:00 437.432
CINEMA 3 29 Jun 21:13:08 21:16:59 38° 262° (W) 21:20:51 145.822/145.860
STRAND 1 29 Jun 21:14:52 21:19:49 48° 288° (WNW) 21:24:44 437.568
Cosmos 2499 29 Jun 21:16:47 21:23:19 25° 291° (WNW) 21:30:10 435.465 / 435.565
M-CUBED/EXP-1 PRIME 29 Jun 21:22:20 21:25:34 65° 72° (ENE) 21:28:49 437.505
ZACube-1 29 Jun 21:22:47 21:26:24 29° 71° (ENE) 21:30:06 437.345
HO-68 29 Jun 21:23:12 21:30:02 48° 260° (W) 21:36:56 435.675
Oscar 11 29 Jun 21:29:48 21:33:49 39° 73° (ENE) 21:37:53 145.826/435.025
SRMSAT 29 Jun 21:37:34 21:40:01 13° 192° (SSW) 21:42:28 437.500
FUNcube-1 29 Jun 21:39:15 21:43:12 42° 73° (ENE) 21:47:16 145.935
COMPASS 1 29 Jun 21:42:20 21:46:18 40° 262° (W) 21:50:18 437.405
UWE-3 29 Jun 21:46:04 21:50:14 90° 132° (SE) 21:54:32 435.000/436.395/437.385
CANX-2 29 Jun 21:47:05 21:49:46 16° 267° (W) 21:52:27 2200.000
AO-85 29 Jun 21:49:36 21:55:03 88° 118° (ESE) 22:00:23 145.980
PRISM 29 Jun 21:54:43 21:58:47 73° 101° (E) 22:02:50 437.425
CUTE 1.7 + AOD 2 29 Jun 22:08:39 22:09:39 11° 269° (W) 22:10:40 437.475
SEEDS 29 Jun 22:08:45 22:11:09 15° 267° (W) 22:13:32 437.485
AUBIESAT-1 29 Jun 22:16:51 22:19:34 24° 258° (WSW) 22:22:18 437.475
RS-15 29 Jun 22:22:34 22:34:49 71° 246° (WSW) 22:46:51 29.354- 29.394
HUMSAT D 29 Jun 22:24:29 22:28:11 32° 72° (ENE) 22:31:57 437.325/437.525
CUBEBUG 2 29 Jun 22:40:13 22:42:23 14° 268° (W) 22:44:34 437.445
DELFI C3 29 Jun 22:42:53 22:46:51 60° 259° (W) 22:50:52 145.870
ZACube-1 29 Jun 22:59:42 23:02:42 19° 266° (W) 23:05:45 437.345
TIGRISAT 29 Jun 23:01:49 23:05:39 25° 96° (E) 23:09:29 435.000
UNISAT 6 29 Jun 23:07:11 23:11:18 30° 97° (E) 23:15:26 437.425
Oscar 11 29 Jun 23:07:36 23:10:05 15° 267° (W) 23:12:35 145.826/435.025
FUNcube-1 29 Jun 23:17:46 23:19:40 13° 268° (W) 23:21:36 145.935
CUBEBUG 1 29 Jun 23:19:54 23:22:31 16° 67° (ENE) 23:25:09 437.445
VELOX 1 29 Jun 23:30:57 23:34:08 20° 68° (ENE) 23:37:19 145.980
AO-85 29 Jun 23:33:18 23:36:10 14° 315° (NW) 23:39:00 145.980
Cosmos 2491 29 Jun 23:44:01 23:48:55 16° 79° (E) 23:53:48 435.465 / 435.565
ANTELSAT 29 Jun 23:46:30 23:51:11 84° 101° (E) 23:55:54 437.575/2403.000
HUMSAT D 30 Jun 00:01:09 00:03:52 17° 266° (W) 00:06:38 437.325/437.525
SPROUT 30 Jun 00:03:33 00:06:28 18° 68° (ENE) 00:09:23 437.525
UKube-1 30 Jun 00:03:52 00:07:32 28° 70° (ENE) 00:11:14 .
AISAT 30 Jun 00:10:37 00:14:57 60° 75° (ENE) 00:19:17 437.250
ESTCUBE 1 30 Jun 00:12:00 00:16:33 83° 257° (WSW) 00:21:06 437.505/2401.250
DX 1 30 Jun 00:25:42 00:30:00 66° 75° (ENE) 00:34:18 434.975-435.025
YUBILEINY 30 Jun 00:29:52 00:38:39 65° 81° (E) 00:47:24 435.215
50 SAT 30 Jun 00:35:30 00:39:09 58° 259° (W) 00:42:51 437.505
NANOSAT C BR1 30 Jun 00:38:04 00:42:09 45° 99° (E) 00:46:14 145.865
TIGRISAT 30 Jun 00:38:16 00:42:15 28° 290° (WNW) 00:46:14 435.000
RS-15 30 Jun 00:40:09 00:45:00 13° 264° (W) 00:49:51 29.354- 29.394
QB50P1 30 Jun 00:41:49 00:46:00 53° 100° (E) 00:50:10 145.935-145.965
UNISAT 6 30 Jun 00:44:08 00:47:49 23° 291° (WNW) 00:51:31 437.425
POPSAT HIP 1 30 Jun 00:45:09 00:49:22 58° 101° (E) 00:53:35 437.405
Cosmos 2504 30 Jun 00:46:01 00:53:05 26° 70° (ENE) 00:59:52 435.465 / 435.565
SO-50 30 Jun 00:53:55 00:58:15 37° 55° (NE) 01:02:26 436.795
CUBEBUG 1 30 Jun 00:54:23 00:58:28 39° 261° (W) 01:02:33 437.445
QB50P2 30 Jun 00:57:48 01:02:05 89° 282° (WNW) 01:06:22 145.880/145.840
DUCHIFAT 1 30 Jun 00:57:49 01:02:04 75° 101° (E) 01:06:18 145.980
PCSat 30 Jun 01:00:08 01:01:38 11° 102° (ESE) 01:03:08 145.827
POLYITAN 1 30 Jun 01:00:26 01:04:44 87° 276° (W) 01:09:01 437.675
JAS-2 30 Jun 01:06:20 01:10:13 20° 93° (E) 01:13:57 435.910
VELOX 1 30 Jun 01:06:25 01:10:21 31° 262° (W) 01:14:18 145.980
TISAT 1 30 Jun 01:17:43 01:21:23 31° 71° (ENE) 01:25:04 437.305
Cosmos 2491 30 Jun 01:35:45 01:44:32 85° 275° (W) 01:53:20 435.465 / 435.565
SPROUT 30 Jun 01:38:22 01:42:10 31° 263° (W) 01:45:58 437.525
UKube-1 30 Jun 01:40:18 01:43:33 21° 264° (W) 01:46:48 .
BUGSAT 1 30 Jun 01:47:49 01:51:52 62° 285° (WNW) 01:55:58 437.445
BEESAT 3 30 Jun 01:56:03 01:58:59 20° 111° (ESE) 02:01:57 437.485
NANOSAT C BR1 30 Jun 02:15:25 02:17:27 13° 294° (WNW) 02:19:30 145.865
QB50P1 30 Jun 02:19:52 02:21:17 11° 295° (WNW) 02:22:41 145.935-145.965
POPSAT HIP 1 30 Jun 02:23:38 02:24:37 11° 295° (WNW) 02:25:35 437.405
SWISSCUBE 30 Jun 02:25:47 02:30:13 38° 71° (ENE) 02:34:39 437.505
YUBILEINY 30 Jun 02:28:08 02:34:37 24° 278° (W) 02:41:07 435.215
SO-50 30 Jun 02:35:08 02:38:24 19° 251° (WSW) 02:41:35 436.795
BEESAT 2 30 Jun 02:36:13 02:39:45 32° 113° (ESE) 02:43:18 435.950
Cosmos 2504 30 Jun 02:38:21 02:47:02 63° 269° (W) 02:55:16 435.465 / 435.565
PCSat 30 Jun 02:38:52 02:44:16 78° 297° (WNW) 02:49:44 145.827
O/OREOS (USA 219) 30 Jun 02:46:47 02:51:07 50° 106° (ESE) 02:55:28 437.305
JAS-2 30 Jun 02:50:27 02:55:33 40° 290° (WNW) 03:00:21 435.910
BEESAT 30 Jun 02:50:33 02:55:16 65° 75° (ENE) 03:00:01 436.000
ITUPSAT 1 30 Jun 02:52:35 02:57:20 67° 74° (ENE) 03:02:07 437.325
TISAT 1 30 Jun 02:54:18 02:57:04 17° 265° (W) 02:59:50 437.305
Oscar 19 30 Jun 02:55:03 03:00:12 85° 102° (ESE) 03:05:20 437.125/150
KKS-1 30 Jun 03:17:41 03:19:36 13° 65° (ENE) 03:21:32 437.445
MOZHAYETS 4 30 Jun 03:19:12 03:21:02 12° 65° (ENE) 03:22:52
ITAMSAT 1 30 Jun 03:21:55 03:25:47 21° 95° (E) 03:29:36 435.822/435.867
Gurwin Techsat 1B 30 Jun 03:24:08 03:29:27 68° 102° (ESE) 03:34:44 435.225
BEESAT 3 30 Jun 03:33:08 03:36:29 27° 306° (NW) 03:39:53 437.485
Cosmos 2491 30 Jun 03:38:13 03:42:39 15° 295° (WNW) 03:47:07 435.465 / 435.565
AO-7 30 Jun 03:42:44 03:47:54 18° 93° (E) 03:53:02 29.400- 29.500
STARS 30 Jun 03:45:40 03:47:29 12° 65° (ENE) 03:49:20 437.465
AIST 1 30 Jun 03:58:56 04:01:44 17° 74° (ENE) 04:04:30
SWISSCUBE 30 Jun 04:04:46 04:08:06 19° 266° (W) 04:11:27 437.505
BEESAT 2 30 Jun 04:14:47 04:17:38 19° 309° (NW) 04:20:31 435.950
PCSat 30 Jun 04:26:54 04:28:33 11° 315° (NW) 04:30:10 145.827
O/OREOS (USA 219) 30 Jun 04:28:29 04:30:49 14° 302° (WNW) 04:33:07 437.305
BEESAT 30 Jun 04:32:19 04:33:26 11° 269° (W) 04:34:32 436.000
GONETS M04 30 Jun 04:34:06 04:38:29 14° 64° (ENE) 04:42:49
ITUPSAT 1 30 Jun 04:34:41 04:35:33 10° 269° (W) 04:36:26 437.325
Oscar 19 30 Jun 04:38:09 04:38:46 10° 299° (WNW) 04:39:22 437.125/150
CUBESAT XI-V 30 Jun 04:50:35 04:52:52 14° 66° (ENE) 04:55:10 437.345
KKS-1 30 Jun 04:51:23 04:55:41 52° 260° (W) 05:00:01 437.445
MOZHAYETS 4 30 Jun 04:53:05 04:57:38 59° 260° (W) 05:02:14
ITAMSAT 1 30 Jun 05:00:28 05:05:21 41° 289° (WNW) 05:10:12 435.822/435.867
Gurwin Techsat 1B 30 Jun 05:06:09 05:08:46 14° 297° (WNW) 05:11:22 435.225
AIST 2 30 Jun 05:08:42 05:12:47 83° 118° (ESE) 05:16:56 435.215
Cosmos 2499 30 Jun 05:18:21 05:24:15 20° 67° (ENE) 05:29:53 435.465 / 435.565
STARS 30 Jun 05:19:08 05:23:22 51° 260° (W) 05:27:38 437.465
PHONESAT 2.4 30 Jun 05:30:52 05:33:03 18° 145° (SE) 05:35:12 2401.200-2431.200
AO-7 30 Jun 05:33:00 05:41:25 83° 288° (WNW) 05:49:46 29.400- 29.500
AIST 1 30 Jun 05:35:37 05:39:21 31° 269° (W) 05:43:06
HORYU 2 30 Jun 06:10:31 06:14:59 65° 102° (ESE) 06:19:26 437.375
CUBESAT XI-V 30 Jun 06:25:09 06:29:45 54° 260° (W) 06:34:22 437.345
AO-85 30 Jun 06:25:29 06:29:27 30° 53° (NE) 06:33:06 145.980
GONETS M04 30 Jun 06:27:48 06:36:35 84° 84° (E) 06:45:22
NOAA 15 30 Jun 06:36:28 06:40:33 23° 95° (E) 06:44:35 137.62
STRAND 1 30 Jun 06:50:15 06:53:46 19° 66° (ENE) 06:57:18 437.568
PHONESAT 2.4 30 Jun 07:06:20 07:09:24 75° 339° (NNW) 07:12:28 2401.200-2431.200
Cosmos 2499 30 Jun 07:09:38 07:18:21 78° 266° (W) 07:26:27 435.465 / 435.565
CUSAT 1 30 Jun 07:10:42 07:17:35 35° 92° (E) 07:23:35 437.405
BRITE-PL 30 Jun 07:11:10 07:15:11 48° 100° (E) 07:19:19 437.365/2234.400
Cubesat XI-IV 30 Jun 07:19:01 07:24:08 43° 99° (E) 07:29:13 437.490
NOAA 18 30 Jun 07:27:12 07:32:40 56° 101° (ESE) 07:38:06 137.9125
AO-7 30 Jun 07:28:07 07:32:56 17° 307° (NW) 07:37:44 29.400- 29.500
GOMX 1 30 Jun 07:35:52 07:39:54 40° 99° (E) 07:44:06 467.674
DANDE 30 Jun 07:48:16 07:55:45 37° 90° (E) 08:02:46 436.750
HORYU 2 30 Jun 07:49:51 07:50:57 11° 296° (WNW) 07:52:01 437.375
CUTE-I 30 Jun 07:52:37 07:58:02 88° 283° (WNW) 08:03:24 437.470
LilacSat-2 30 Jun 08:04:10 08:07:55 47° 285° (WNW) 08:11:39 437.200
AO-85 30 Jun 08:06:26 08:09:37 20° 251° (WSW) 08:12:38 145.980
NOAA 15 30 Jun 08:15:34 08:20:22 37° 290° (WNW) 08:25:09 137.62
CUTE 1.7 + AOD 2 30 Jun 08:19:40 08:21:03 11° 91° (E) 08:22:25 437.475
ISS 30 Jun 08:23:42 08:26:57 79° 137° (SE) 08:30:12 145.825
DOVE 4 30 Jun 08:27:00 08:31:25 70° 102° (ESE) 08:36:03 437.250
GONETS M04 30 Jun 08:27:17 08:32:12 17° 281° (W) 08:37:08
STRAND 1 30 Jun 08:27:39 08:32:33 46° 260° (W) 08:37:31 437.568
PRISM 30 Jun 08:41:09 08:44:54 33° 72° (ENE) 08:48:39 437.425
PHONESAT 2.4 30 Jun 08:43:28 08:46:16 31° 356° (N) 08:49:03 2401.200-2431.200
BRITE-PL 30 Jun 08:52:02 08:53:17 11° 294° (WNW) 08:54:32 437.365/2234.400
CUSAT 1 30 Jun 08:52:19 08:59:31 41° 282° (WNW) 09:05:43 437.405
HO-68 30 Jun 08:54:03 09:00:45 40° 99° (E) 09:07:22 435.675
AAUSAT CUBESAT 2 30 Jun 08:54:49 08:55:43 11° 91° (E) 08:56:37 437.432
CUBEBUG 2 30 Jun 08:57:12 08:58:52 12° 92° (E) 09:00:31 437.445
Cubesat XI-IV 30 Jun 08:59:52 09:03:51 22° 294° (WNW) 09:07:51 437.490
Cosmos 2499 30 Jun 09:07:02 09:09:49 12° 285° (WNW) 09:12:33 435.465 / 435.565
NOAA 18 30 Jun 09:09:12 09:12:49 18° 297° (WNW) 09:16:26 137.9125
CINEMA 3 30 Jun 09:09:33 09:14:08 58° 101° (E) 09:18:53 145.822/145.860
GOMX 1 30 Jun 09:15:18 09:17:42 15° 292° (WNW) 09:20:10 467.674
COMPASS 1 30 Jun 09:28:07 09:32:00 37° 98° (E) 09:35:51 437.405
DANDE 30 Jun 09:30:25 09:38:23 46° 283° (WNW) 09:45:50 436.750
FUNcube-1 30 Jun 09:32:20 09:33:47 11° 91° (E) 09:35:14 145.935
CANX-2 30 Jun 09:33:14 09:37:31 74° 284° (WNW) 09:41:45 2200.000
CUTE-I 30 Jun 09:37:06 09:37:13 10° 300° (WNW) 09:37:20 437.470
UWE-3 30 Jun 09:38:55 09:42:40 24° 95° (E) 09:46:26 435.000/436.395/437.385
CUTE 1.7 + AOD 2 30 Jun 09:53:00 09:57:08 49° 286° (WNW) 10:01:13 437.475
SEEDS 30 Jun 09:53:30 09:57:43 70° 284° (WNW) 10:01:53 437.485
AUBIESAT-1 30 Jun 09:57:02 10:00:16 22° 102° (ESE) 10:03:39 437.475
TIGRISAT 30 Jun 09:58:57 10:01:18 14° 66° (ENE) 10:03:40 435.000
ISS 30 Jun 10:01:59 10:03:44 14° 333° (NNW) 10:05:30 145.825
UNISAT 6 30 Jun 10:04:05 10:06:59 18° 67° (ENE) 10:09:56 437.425
PRISM 30 Jun 10:17:41 10:20:16 16° 266° (W) 10:22:52 437.425
PHONESAT 2.4 30 Jun 10:20:19 10:23:15 40° 13° (NNE) 10:26:11 2401.200-2431.200
DELFI C3 30 Jun 10:24:16 10:27:15 20° 95° (E) 10:30:13 145.870
AAUSAT CUBESAT 2 30 Jun 10:27:26 10:31:27 49° 285° (WNW) 10:35:26 437.432
CUBEBUG 2 30 Jun 10:31:10 10:35:44 59° 285° (WNW) 10:40:23 437.445
RS-15 30 Jun 10:32:48 10:41:04 24° 101° (E) 10:49:35 29.354- 29.394
M-CUBED/EXP-1 PRIME 30 Jun 10:37:17 10:41:18 86° 107° (ESE) 10:45:39 437.505
HO-68 30 Jun 10:41:54 10:48:17 35° 295° (WNW) 10:54:38 435.675
ANTELSAT 30 Jun 10:42:22 10:46:29 48° 74° (ENE) 10:50:44 437.575/2403.000
CINEMA 3 30 Jun 10:48:45 10:50:48 13° 294° (WNW) 10:52:53 145.822/145.860
ZACube-1 30 Jun 10:49:13 10:53:48 83° 285° (WNW) 10:58:24 437.345
Oscar 11 30 Jun 10:55:38 10:59:58 65° 284° (WNW) 11:04:14 145.826/435.025
COMPASS 1 30 Jun 11:04:46 11:07:13 15° 292° (WNW) 11:09:37 437.405
FUNcube-1 30 Jun 11:05:49 11:10:19 57° 285° (WNW) 11:14:47 145.935
UWE-3 30 Jun 11:15:05 11:19:03 29° 289° (WNW) 11:23:02 435.000/436.395/437.385
NANOSAT C BR1 30 Jun 11:27:48 11:31:03 23° 70° (ENE) 11:34:20 145.865
PCSat 30 Jun 11:29:54 11:35:04 43° 58° (ENE) 11:40:13 145.827
AUBIESAT-1 30 Jun 11:31:14 11:34:39 27° 293° (WNW) 11:38:15 437.475
QB50P1 30 Jun 11:31:40 11:35:10 26° 71° (ENE) 11:38:41 145.935-145.965
TIGRISAT 30 Jun 11:33:30 11:37:34 42° 261° (W) 11:41:44 435.000
POPSAT HIP 1 30 Jun 11:34:59 11:38:34 28° 71° (ENE) 11:42:09 437.405
YUBILEINY 30 Jun 11:36:37 11:39:52 13° 77° (ENE) 11:43:07 435.215
UNISAT 6 30 Jun 11:39:31 11:43:24 34° 263° (W) 11:47:24 437.425
